www.pogodaiklimat.ru

Погода и климат >> Архив погоды >> Россия >> Чукотка >> Анюйск


ПОГОДА в Анюйске

  • Прогноз погоды в Анюйске
  • Монитор погоды в Анюйске

АРХИВ ПОГОДЫ в Анюйске

Время (UTC), дата Ветер
(напр.,м/с)
 
Видим.   Явления Облачность Т
(С)
Тd
(С)
f
(%)
Тe
(С)
Тes
(С)
Комфортность P
(гПа)
Po
(гПа)
Тmin
(С)
Tmax
(С)
R
(мм)
R24
(мм)
S
(см)
06 19.08 ЮЗ 2 н/о н/о +21.2 +7.9 42 +22 +22 комфорт 1023.9 1020.9
09 19.08 В 1 н/о н/о +16.1 +10.1 68 +17 +17 1023.7 1020.7 +22.3
12 19.08 В 3 н/о н/о +13.4 +9.4 77 +12 +12 1023.9 1020.9
15 19.08 В 3 н/о н/о +13.4 +10.4 82 +12 +12 1023.7 1020.7
18 19.08 В 3 н/о н/о +11.6 +10.2 91 +10 +10 1023.9 1020.8
21 19.08 ЮВ 2 н/о н/о +17.0 +11.2 69 +17 +17 1023.3 1020.3 +11.6
00 20.08 ЮВ 2 н/о н/о +22.1 +11.3 50 +24 +24 комфорт 1022.4 1019.5
03 20.08 ЮВ 1 н/о н/о +24.3 +10.2 41 +25 +25 комфорт 1021.0 1018.1
06 20.08 штиль 0 н/о н/о +25.3 +9.0 36 +26 +26 жарко 1019.8 1016.9
09 20.08 С 1 н/о н/о +18.7 +11.4 63 +20 +20 1019.7 1016.7 +25.6
12 20.08 СВ 3 н/о н/о +15.5 +11.0 75 +15 +15 1019.3 1016.3
15 20.08 штиль 0 н/о н/о +11.2 +9.5 89 +11 +11 1019.0 1015.9
18 20.08 штиль 0 н/о н/о +9.5 +8.9 96 +9 +9 1019.0 1015.9
21 20.08 ЮВ 2 н/о н/о +15.6 +10.6 72 +16 +16 1018.6 1015.6 +9.1
00 21.08 З 1 н/о н/о +20.8 +12.0 57 +24 +24 комфорт 1018.0 1015.1
03 21.08 С 3 н/о н/о +24.0 +10.2 42 +25 +25 комфорт 1017.2 1014.3
06 21.08 СЗ 3 н/о н/о +22.1 +10.2 47 +24 +24 комфорт 1016.8 1013.9
09 21.08 С 3 н/о н/о +16.2 +10.9 71 +16 +16 1016.9 1013.9 +24.7
12 21.08 С 1 н/о н/о +11.0 +9.9 93 +11 +11 1017.4 1014.3
15 21.08 С 2 н/о н/о +9.2 +9.2 100 +7 +7 1017.8 1014.7
18 21.08 С 2 н/о н/о +8.0 +8.0 100 +6 +6 1018.6 1015.5
21 21.08 СЗ 3 н/о н/о +9.5 +9.2 98 +7 +7 1019.9 1016.9 +7.5
00 22.08 СЗ 3 н/о н/о +12.5 +8.8 78 +11 +11 1020.5 1017.5
03 22.08 СЗ 4 н/о н/о +16.2 +8.2 59 +16 +16 1020.4 1017.4
06 22.08 СЗ 5 н/о н/о +13.1 +7.9 71 +11 +11 1020.2 1017.2
09 22.08 СЗ 3 н/о н/о +7.2 +6.5 95 +4 +4 1020.8 1017.7 +16.3
12 22.08 З 2 н/о н/о +6.0 +6.0 100 +3 +3 1021.3 1018.2
15 22.08 ЮЗ 1 н/о н/о +5.6 +5.6 100 +4 +4 1021.8 1018.7
18 22.08 ЮВ 1 н/о н/о +5.1 +5.1 100 +4 +4 1022.0 1018.9
21 22.08 Ю 1 н/о н/о +6.9 +5.8 93 +6 +6 1022.0 1018.9 +5.1
00 23.08 Ю 1 н/о н/о +11.4 +6.0 69 +11 +11 1021.2 1018.2
03 23.08 З 2 н/о н/о +15.1 +6.8 58 +15 +15 1019.5 1016.5
06 23.08 Ю 1 н/о н/о +17.7 +6.8 49 +19 +19 1018.0 1015.0
09 23.08 З 1 н/о н/о +12.4 +7.8 74 +12 +12 1017.1 1014.1 +18.1
12 23.08 В 1 н/о н/о +7.9 +6.8 93 +7 +7 1016.2 1013.2
15 23.08 В 2 н/о н/о +8.5 +5.0 79 +7 +7 1015.2 1012.1
18 23.08 ЮВ 2 н/о н/о +5.8 +4.3 90 +3 +3 1014.2 1011.1
21 23.08 ЮВ 2 н/о н/о +11.4 +6.0 69 +10 +10 1013.5 1010.5 +4.6
00 24.08 ЮВ 2 н/о н/о +17.0 +7.0 52 +17 +17 1012.0 1009.0
03 24.08 ЮВ 1 н/о н/о +21.6 +5.1 34 +22 +22 комфорт 1010.2 1007.3
06 24.08 ЮВ 1 н/о н/о +22.8 +3.0 27 +22 +22 комфорт 1008.8 1005.9
09 24.08 СВ 1 н/о н/о +15.8 +7.0 56 +17 +17 1008.0 1005.1 +23.1
12 24.08 В 2 н/о н/о +13.3 +6.4 63 +13 +13 1007.1 1004.1
15 24.08 В 2 н/о н/о +11.2 +5.2 67 +10 +10 1006.3 1003.3
18 24.08 В 1 н/о н/о +9.8 +5.7 76 +9 +9 1005.5 1002.4
21 24.08 ЮВ 2 н/о н/о +16.2 +8.6 61 +16 +16 1005.4 1002.4 +8.8
00 25.08 ЮЗ 2 н/о н/о +19.5 +9.8 53 +21 +21 комфорт 1004.8 1001.8
03 25.08 СЗ 2 н/о н/о +24.9 +10.0 39 +26 +26 жарко 1003.6 1000.7
06 25.08 н/о +28.2 1013.0 1008.3
09 25.08 штиль 0 н/о +29.1 +10.0 30 +29 +29 жарко 1017.3 1000.0 161
12 25.08 штиль 0 н/о +26.5 +20.3 69 +28 +28 жарко 1010.3 1014.5 201

 

Местоположение метеостанции Анюйск (Чукотка, Россия): широта 68.35 долгота 161.50 высота над уровнем моря 41 м.

В архиве по умолчанию представлена погода в Анюйске за последнюю неделю. Архивные данные за месяц целиком и за предыдущие месяцы, начиная с января 2011 года, Вы можете получить, выбрав интересующий диапазон дат из раскрывающегося списка и нажав кнопку "Ввод!".


*Определитесь, кто Вы:
робот инопланетянин человек

Внимание! Время в таблицах - всемирное. Для получения местного времени необходимо прибавить поправку, которая равна 12 ч.

Смотрите также архив погоды в соседних городах и на ближайших метеорологических станциях:

Погода в Константиновской (Чукотка, Россия) (28 км)
Погода в Черском (Якутия, Россия) (43 км)
Погода в Островном (Чукотка, Россия) (110 км)
Погода в Колымской (Якутия, Россия) (125 км)
Погода в Бухте Амбарчик (Чукотка, Россия) (145 км)
Погода в Билибино (Чукотка, Россия) (205 км)
Погода в Баимке (Чукотка, Россия) (233 км)
Погода в Раучуе (Чукотка, Россия) (237 км)
Погода в Илирнее (Чукотка, Россия) (295 км)
Погода в Андрюшкино (Якутия, Россия) (296 км)

Пояснения к столбцам:

Ветер - указаны скорость ветра в м/с - средняя за 10 мин, порывы в срок и между сроками (в фигурных скобках) и направление, откуда дует ветер: С - северный, СВ - северо-восточный, В - восточный, ЮВ - юго-восточный, Ю - южный, ЮЗ - юго-западный, З - западный, СЗ - северо-западный.
Видимость - горизонтальная дальность видимости в метрах или километрах. При видимости от 1 до 10 км при отсутствии осадков обычно наблюдается дымка, при ухудшении видимости до 1 км и менее - туман. В сухую погоду видимость может ухудшаться дымом, пылью или мглою.
Явления - указаны атмосферные явления, наблюдавшиеся в срок или в последний час перед сроком; фигурными скобками обозначены явления, наблюдавшиеся между сроками (за 1-3 часа до срока); квадратными скобками обозначены град или гололедные отложения с указанием их диаметра в мм.
Облачность - указаны через наклонную черту общая и нижняя облачность в баллах и высота нижней границы облаков в метрах; квадратными скобками обозначены формы облаков: Ci - перистые, Cs - перисто-слоистые, Cc - перисто-кучевые, Ac - высококучевые, As - высокослоистые, Sc - слоисто-кучевые, Ns - слоисто-дождевые, Cu - кучевые, Cb - кучево-дождевые. Подробнее классификацию облаков см. в Атласе облаков (PDF).
T - Температура воздуха - температура, измеренная на высоте 2 м над землей.
Td - Температура точки росы - температура, при понижении до которой содержащийся в воздухе водяной пар достигнет насыщения.
f - Относительная влажность воздуха - влажноcть воздуха, измеренная на высоте 2 м над землей.
Te - Эффективная температура - температура, которую ощущает одетый по сезону человек в тени. Характеристика душности погоды. При расчете учитывается влияние влажности воздуха и скорости ветра на теплоощущения человека.
Tes - Эффективная температура на солнце - температура, которую ощущает человек, с поправкой на солнечный нагрев. Характеристика знойности погоды. Зависит от высоты солнца над горизонтом, облачности и скорости ветра. Ночью, в пасмурную погоду, а также при ветре 12 м/с и более поправка равна нулю.
P - Атмосферное давление - приведенное к уровню моря атмосферное давление.
Po - Атмосферное давление - измеренное на уровне метеостанции атмосферное давление.
Tmin - Минимальная температура - минимум температуры воздуха на высоте 2 м над землей.
Tmax - Максимальная температура - максимум температуры воздуха на высоте 2 м над землей.
R - Количество осадков - Количество выпавших осадков за период времени, мм. При наведении курсора мыши на число - период времени, за который выпало указанное количество осадков.
R24 - Количество осадков - Количество выпавших осадков за 24 часа, мм.
S - Снежный покров - Высота снежного покрова, см. При наведении курсора мыши на число - состояние снежного покрова и степень покрытия местности в баллах.